FENGYUN 3D

Last updated on Thu Jul 03 2025 00:02:22 GMT+0000 (Coordinated Universal Time)

1 43010U 17072A 25183.57882770 .00000059 00000+0 49580-4 0 9991 2 43010 98.9631 147.6793 0001462 15.3566 344.7653 14.19635283395384
UTC large
Height (km)
Speed (km/s)
/
Latitude / Longitude
Inclination (degrees)
Orbital Period (minutes)
Azimuth
Elevation
Range (km)
Doppler Factor

Next 0 passes for location: London (51.5072 / 0.1276)

Sorry there are no passes over London.